FENGYUN 1C DEB

Satellite information

Favourite Embed

Satellite Type and Status

DEBRISIN ORBIT

Key statistics

Satellite FENGYUN 1C DEB at a glance.

Uptime

9715

Days in orbit

Revolutions

≈ 14.3

Per day

Orbit

SSO

Sun Synchronous Orbit

Inclination

99.4

Latest

Satellite identification and parameters

Extended collection of information and parameters for FENGYUN 1C DEB.

Object identification

Identified? True

Debris? True

Object name: FENGYUN 1C DEB

International designator: 1999-025YZ

Object number (NORAD): 30288

Object ID (CCSDS): 30288

Country: PEOPLES REPUBLIC OF CHINA (PRC)

Current information (Y/N): Y

RCS size: SMALL

Orbital parameters

Period: 100.518 minutes

Inclination: 99.3947 deg

SMA: 7161.274 km

Apoapsis: 797.857 km

Periapsis: 768.42 km

RAAN: 67.7801 deg

Eccentricy: 0.00205526

Argument of periapsis: 323.5368 deg

Mean anomaly: 96.9247 deg

Mean motion: 14.32574954 rev/day

Mean motion (dot): 0.00007438 rev/day2

B* drag term: 0.0027500594 1/REarth

Two-line elements (TLE)

Creation date: Dec. 12, 2025, 10:14 a.m.

Reference frame: TEME

Reference center: EARTH

Epoch: Dec. 12, 2025, 4:14 a.m. UTC

TLE line 0: 0 FENGYUN 1C DEB

TLE line 1: 1 30288U 99025YZ 25346.17687416 .00007438 00000-0 27501-2 0 9995

TLE line 2: 2 30288 99.3947 67.7801 0020553 323.5368 96.9247 14.32574954975617

Live tracking on map

Real-time ground track for satellite FENGYUN 1C DEB.

In-orbit conjunctions

A list of the most updated potential collisions computed for object FENGYUN 1C DEB.

Target Orbit TCA Probability of collision Miss distance Type
SL-8 R/B LEO 2025-05-14 11:34:43 0.0001033465 508.0 (m) ROCKET BODY
CZ-6A DEB LEO 2024-11-17 18:57:49 0.0001010992 922.0 (m) DEBRIS
NOAA 16 DEB SSO 2024-11-12 01:06:25 0.0001335563 813.0 (m) DEBRIS
THOR ABLESTAR DEB LEO 2024-07-11 07:18:02 0.0001003481 171.0 (m) DEBRIS

Associated space launch

Chinese polar orbiting meteorological satellite

FENGYUN 1C DEB was lifted into orbit during the mission ‘Long March 4B | Feng Yun 1C’, on board a Long March 4B space rocket.

The launch took place on May 10, 1999, 1:33 a.m. from Launch Complex 7.

For more information about the launch, click the button.

Launch to space Long March 4B | Feng Yun 1C
Long March 4B | Feng Yun 1C

Agency: N/A

Status: Launch Successful

Launch date: May 10, 1999, 1:33 a.m. UTC

Rocket: Long March 4B

Launch pad: Launch Complex 7

Location: Taiyuan Satellite Launch Center, People's Republic of China

...

Latest news about this satellite

There are no fresh news available about this satellite. Check back as we update our databases every day.


Newsletter sign-up

Weekly statistics, charts and insights to help you stay on top of the space industry.